Location: Gorze? G�rny
(49.8500°N, 19.5000°E)
Time: 04:48:59
(UTC+00:00)

ARIANE 5 R/B - Pass Details

Date: 13 May 2021
Orbit: 620 x 656 km, 98.1° (Epoch: 13 June)

Event Time Altitude Azimuth Distance (km) Brightness Sun altitude
Exits shadow 20:01:00 17° 170° (S) 1,576 4.1 -13.2°
Maximum altitude 20:04:19 79° 257° (WSW) 638 2.6 -13.6°
Drops below altitude 10° 20:08:40 10° 344° (NNW) 2,002 6.4 -14.0°
Sets 20:10:52 0° 345° (NNW) 2,915 7.4 -14.2°
